Weather History for Charlotte, NC

Change the Weather History Date:

Wednesday, September 18, 2013

  Actual Average Record
Temperature  
Mean Temperature 68 °F 70 °F  
Max Temperature 77 °F 81 °F 99 °F (1896)
Min Temperature 58 °F 60 °F 48 °F (1999)
Degree Days  
Heating Degree Days 0 1  
Month to date heating degree days 0 3  
Since 1 July heating degree days 1 3  
Cooling Degree Days 3 6  
Month to date cooling degree days 195 147  
Year to date cooling degree days 1483 1424  
Growing Degree Days 18 (Base 50)    
Moisture  
Dew Point 52 °F    
Average Humidity 59    
Maximum Humidity 75    
Minimum Humidity 43    
Precipitation  
Precipitation 0.00 in 0.11 in 4.84 in (1928)
Month to date precipitation 0.15 1.93  
Year to date precipitation 35.47 30.53  
Snow  
Snow 0.00 in 0.00 in 0.00 in ()
Month to date snowfall 0.0 0.0  
Since 1 July snowfall 0.0 0.0  
Since 1 September snowfall 0.0 0.0  
Snow Depth 0.00 in    
Sea Level Pressure  
Sea Level Pressure 30.24 in    
Wind  
Wind Speed 6 mph (NE)    
Max Wind Speed 14 mph    
Max Gust Speed 17 mph    
Visibility 10 miles    
Events      
T = Trace of Precipitation, MM = Missing Value Source: NWS Daily Summary

Daily Weather History Graph

Daily Weather History Graph

Search for Another Location

Airport:

Trip Planner

Search our weather history database for the weather conditions in past years. The results will help you decide how hot, cold, wet, or windy it might be!

Date:

Astronomy

Sep. 18, 2013 Rise Set
Actual Time 7:09 AM EDT 7:26 PM EDT
Civil Twilight 6:43 AM EDT 7:51 PM EDT
Nautical Twilight 6:13 AM EDT 8:21 PM EDT
Astronomical Twilight 5:43 AM EDT 8:51 PM EDT
Moon 6:48 PM EDT (9/18) 6:10 AM EDT (9/18)
Length of Visible Light 13h 07m
Length of Day
12h 17m
Waxing Gibbous, 99% of the Moon is Illuminated
Sep 18
Waxing Gibbous
Sep 19
Full
Sep 26
Last Quarter
Oct 4
New
Oct 11
First Quarter

Hourly Weather History & Observations

Time (EDT) Temp. Dew Point Humidity Pressure Visibility Wind Dir Wind Speed Gust Speed Precip Events Conditions
12:52 AM 64.9 °F 52.0 °F 63% 30.26 in 10.0 mi ENE 5.8 mph - N/A   Overcast
1:52 AM 64.9 °F 52.0 °F 63% 30.27 in 10.0 mi ENE 9.2 mph - N/A   Overcast
2:52 AM 62.1 °F 52.0 °F 70% 30.26 in 10.0 mi East 11.5 mph - N/A   Overcast
3:52 AM 61.0 °F 52.0 °F 72% 30.26 in 10.0 mi East 9.2 mph - N/A   Overcast
4:52 AM 60.1 °F 52.0 °F 75% 30.27 in 10.0 mi East 8.1 mph - N/A   Overcast
5:52 AM 60.1 °F 52.0 °F 75% 30.27 in 10.0 mi ENE 9.2 mph - N/A   Overcast
6:52 AM 59.0 °F 52.0 °F 78% 30.29 in 10.0 mi NE 6.9 mph - N/A   Overcast
7:52 AM 59.0 °F 52.0 °F 78% 30.30 in 10.0 mi NE 6.9 mph - N/A   Overcast
8:52 AM 61.0 °F 50.0 °F 67% 30.30 in 10.0 mi ENE 6.9 mph - N/A   Overcast
9:52 AM 62.1 °F 48.9 °F 62% 30.31 in 10.0 mi NNE 8.1 mph - N/A   Overcast
10:52 AM 66.9 °F 50.0 °F 54% 30.30 in 10.0 mi NE 4.6 mph - N/A   Clear
11:52 AM 70.0 °F 50.0 °F 49% 30.28 in 10.0 mi Variable 5.8 mph - N/A   Scattered Clouds
12:52 PM 71.1 °F 50.0 °F 47% 30.26 in 10.0 mi Variable 4.6 mph - N/A   Mostly Cloudy
1:52 PM 73.9 °F 51.1 °F 45% 30.24 in 10.0 mi North 5.8 mph - N/A   Scattered Clouds
2:52 PM 75.0 °F 52.0 °F 44% 30.22 in 10.0 mi Variable 5.8 mph - N/A   Scattered Clouds
3:52 PM 75.9 °F 53.1 °F 45% 30.19 in 10.0 mi North 5.8 mph - N/A   Scattered Clouds
4:52 PM 77.0 °F 53.1 °F 43% 30.18 in 10.0 mi Variable 5.8 mph - N/A   Mostly Cloudy
5:52 PM 73.9 °F 54.0 °F 50% 30.18 in 10.0 mi NNW 4.6 mph - N/A   Mostly Cloudy
6:52 PM 71.1 °F 55.0 °F 57% 30.18 in 10.0 mi NNE 6.9 mph - N/A   Mostly Cloudy
7:52 PM 69.1 °F 55.9 °F 63% 30.18 in 10.0 mi NNE 4.6 mph - N/A   Mostly Cloudy
8:52 PM 70.0 °F 54.0 °F 57% 30.18 in 10.0 mi East 6.9 mph - N/A   Mostly Cloudy
9:52 PM 68.0 °F 54.0 °F 61% 30.20 in 10.0 mi ENE 5.8 mph - N/A   Scattered Clouds
10:52 PM 68.0 °F 53.1 °F 59% 30.19 in 10.0 mi East 5.8 mph - N/A   Partly Cloudy
11:52 PM 64.9 °F 54.0 °F 68% 30.19 in 10.0 mi Calm Calm - N/A   Partly Cloudy